Location: Newark
(39.0622°N, 106.5590°E)
Time: 21:02:29
(UTC+00:00)

Tiros 1 - All Passes

Search period start: 18 January 2020 00:00
Search period end: 28 January 2020 00:00
Orbit: 630 x 664 km, 48.4° (Epoch: 18 January)

Date Brightness Start Highest point End Pass type
(mag) Time Alt. Az. Time Alt. Az. Time Alt. Az.
18 Jan - 06:32:47 10° S 06:35:58 18° SE 06:39:11 10° E daylight
18 Jan - 08:12:57 10° WSW 08:17:41 87° NNW 08:22:29 10° ENE daylight
18 Jan - 09:56:05 10° WNW 10:00:21 32° NNW 10:04:39 10° NE daylight
18 Jan - 11:39:26 10° NW 11:43:33 28° N 11:47:42 10° ENE visible
18 Jan - 13:21:44 10° NW 13:26:29 57° NNE 13:31:13 10° ESE visible
18 Jan - 15:04:15 10° WNW 15:08:32 33° SW 15:12:49 10° SSE night (unlit)
19 Jan - 06:57:17 10° SSW 07:01:41 41° SE 07:06:09 10° ENE daylight
19 Jan - 08:39:17 10° W 08:43:52 48° NNW 08:48:31 10° NE daylight
19 Jan - 10:22:49 10° WNW 10:26:53 27° N 10:30:57 10° NE visible
19 Jan - 12:05:39 10° NW 12:10:03 35° NNE 12:14:28 10° E visible
19 Jan - 13:47:47 10° WNW 13:52:36 77° SW 13:57:24 10° SE visible
19 Jan - 15:31:39 10° W 15:34:12 14° SW 15:36:46 10° SSW night (unlit)
20 Jan - 05:43:02 10° S 05:45:58 17° SE 05:48:55 10° E daylight
20 Jan - 07:22:54 10° SW 07:27:38 87° SE 07:32:24 10° ENE daylight
20 Jan - 09:05:58 10° W 09:10:15 32° NNW 09:14:34 10° NE daylight
20 Jan - 10:49:21 10° NW 10:53:27 27° N 10:57:33 10° ENE visible
20 Jan - 12:31:41 10° NW 12:36:24 54° NNE 12:41:07 10° ESE visible
20 Jan - 14:14:07 10° WNW 14:18:30 36° SW 14:22:53 10° SSE visible
21 Jan - 06:07:20 10° SSW 06:11:40 37° SE 06:16:02 10° ENE daylight
21 Jan - 07:49:11 10° WSW 07:53:47 51° NNW 07:58:27 10° NE daylight
21 Jan - 09:32:43 10° WNW 09:36:46 27° N 09:40:50 10° NE daylight
21 Jan - 11:15:35 10° NW 11:19:57 34° NNE 11:24:20 10° E visible
21 Jan - 12:57:43 10° WNW 13:02:33 82° SSW 13:07:21 10° SE visible
21 Jan - 14:41:20 10° W 14:44:12 16° SW 14:47:04 10° SSW night (unlit)
22 Jan - 04:53:20 10° SSE 04:55:58 15° SE 04:58:37 10° E daylight
22 Jan - 06:32:53 10° SW 06:37:34 81° SE 06:42:20 10° ENE daylight
22 Jan - 08:15:51 10° W 08:20:09 33° NNW 08:24:30 10° NE daylight
22 Jan - 09:59:16 10° NW 10:03:20 27° N 10:07:25 10° ENE daylight
22 Jan - 11:41:38 10° NW 11:46:19 51° NNE 11:51:00 10° ESE visible
22 Jan - 13:24:01 10° WNW 13:28:28 39° SW 13:32:55 10° SSE visible
23 Jan - 05:17:25 10° SSW 05:21:38 34° SE 05:25:54 10° ENE daylight
23 Jan - 06:59:06 10° WSW 07:03:42 54° NNW 07:08:23 10° NE daylight
23 Jan - 08:42:36 10° WNW 08:46:39 27° N 08:50:44 10° NE daylight
23 Jan - 10:25:32 10° NW 10:29:51 32° NNE 10:34:11 10° E visible
23 Jan - 12:07:40 10° WNW 12:12:28 88° SW 12:17:18 10° SE visible
23 Jan - 13:51:03 10° W 13:54:11 17° SW 13:57:19 10° S visible
24 Jan - 04:03:41 10° SSE 04:05:57 14° SE 04:08:15 10° E daylight
24 Jan - 05:42:52 10° SW 05:47:31 76° SE 05:52:15 10° ENE daylight
24 Jan - 07:25:44 10° W 07:30:03 34° NNW 07:34:25 10° NE daylight
24 Jan - 09:09:11 10° NW 09:13:13 26° N 09:17:17 10° ENE daylight
24 Jan - 10:51:36 10° NW 10:56:14 48° NNE 11:00:53 10° E visible
24 Jan - 12:33:54 10° WNW 12:38:26 42° SW 12:42:57 10° SSE visible
25 Jan - 04:27:30 10° SSW 04:31:37 31° SE 04:35:46 10° ENE daylight
25 Jan - 06:09:01 10° WSW 06:13:38 57° NNW 06:18:18 10° NE daylight
25 Jan - 07:52:30 10° WNW 07:56:33 27° N 08:00:38 10° NE daylight
25 Jan - 09:35:29 10° NW 09:39:45 31° NNE 09:44:02 10° ENE daylight
25 Jan - 11:17:36 10° WNW 11:22:25 86° NNE 11:27:14 10° ESE visible
25 Jan - 13:00:49 10° W 13:04:10 19° SW 13:07:31 10° S visible
26 Jan - 03:14:09 10° SSE 03:15:58 12° SE 03:17:48 10° ESE daylight
26 Jan - 04:52:51 10° SW 04:57:28 70° SE 05:02:11 10° ENE daylight
26 Jan - 06:35:37 10° W 06:39:57 36° NNW 06:44:21 10° NE daylight
26 Jan - 08:19:06 10° NW 08:23:06 26° N 08:27:08 10° ENE daylight
26 Jan - 10:01:33 10° NW 10:06:08 46° NNE 10:10:46 10° E daylight
26 Jan - 11:43:49 10° WNW 11:48:24 46° SW 11:52:58 10° SSE visible
27 Jan - 03:37:37 10° SSW 03:41:36 29° SE 03:45:38 10° ENE daylight
27 Jan - 05:18:57 10° WSW 05:23:34 61° NNW 05:28:15 10° NE daylight
27 Jan - 07:02:23 10° WNW 07:06:26 28° N 07:10:31 10° NE daylight
27 Jan - 08:45:25 10° NW 08:49:38 31° NNE 08:53:53 10° ENE daylight
27 Jan - 10:27:33 10° WNW 10:32:21 81° NNE 10:37:09 10° ESE visible
27 Jan - 12:10:37 10° W 12:14:08 21° SW 12:17:41 10° S visible
